Santa Monica, CA

5:53 PM PDT on June 27, 2017 (GMT -0700)
Santa Monica Municipal

Weather History for KSMO - October, 2012

Change the Weather History Date:

Thursday, October 4, 2012

  Actual Average Record
Temperature  
Mean Temperature 67 °F -  
Max Temperature 73 °F 79 °F 104 °F (1987)
Min Temperature 62 °F 61 °F 48 °F (1950)
Cooling Degree Days 2    
Growing Degree Days 17 (Base 50)    
Moisture  
Dew Point 56 °F    
Average Humidity 71    
Maximum Humidity 81    
Minimum Humidity 55    
Precipitation  
Precipitation 0.00 in - - ()
Sea Level Pressure  
Sea Level Pressure 30.06 in    
Wind  
Wind Speed 2 mph (SW)    
Max Wind Speed 9 mph    
Max Gust Speed -    
Visibility 10 miles    
Events      
Averages and records for this station are not official NWS values.
T = Trace of Precipitation, MM = Missing Value Source: NWS Daily Summary

Daily Weather History Graph

Daily Weather History Graph

Search for Another Location

Airport or City:

Trip Planner

Search our weather history database for the weather conditions in past years. The results will help you decide how hot, cold, wet, or windy it might be!

Date:

Astronomy

Oct. 04, 2012 Rise Set
Actual Time 6:50 AM PDT 6:33 PM PDT
Civil Twilight 6:25 AM PDT 6:58 PM PDT
Nautical Twilight 5:56 AM PDT 7:27 PM PDT
Astronomical Twilight 5:27 AM PDT 7:56 PM PDT
Moon 9:24 PM PDT (10/4) 10:59 AM PDT (10/4)
Length of Visible Light 12h 32m
Length of Day
11h 42m
Waning Gibbous, 81% of the Moon is Illuminated
Oct 4
Waning Gibbous
Oct 8
Last Quarter
Oct 15
New
Oct 21
First Quarter
Oct 29
Full

Hourly Weather History & Observations

Time (PDT) Temp. Dew Point Humidity Pressure Visibility Wind Dir Wind Speed Gust Speed Precip Events Conditions
12:02 AM 64.4 °F 57.2 °F 77% 30.03 in 10.0 mi SSW 4.6 mph - N/A   Overcast
12:51 AM 64.0 °F 55.9 °F 75% 30.03 in 10.0 mi Calm Calm - N/A   Scattered Clouds
1:29 AM 62.6 °F 55.4 °F 77% 30.04 in 10.0 mi Calm Calm - N/A   Mostly Cloudy
1:51 AM 63.0 °F 55.9 °F 78% 30.04 in 10.0 mi Calm Calm - N/A   Mostly Cloudy
2:51 AM 63.0 °F 55.9 °F 78% 30.04 in 10.0 mi Calm Calm - N/A   Overcast
3:51 AM 64.0 °F 55.9 °F 75% 30.03 in 10.0 mi Calm Calm - N/A   Overcast
4:51 AM 64.0 °F 55.9 °F 75% 30.04 in 10.0 mi Calm Calm - N/A   Overcast
5:28 AM 64.4 °F 55.4 °F 73% 30.05 in 10.0 mi Calm Calm - N/A   Overcast
5:51 AM 64.0 °F 55.9 °F 75% 30.06 in 10.0 mi Calm Calm - N/A   Overcast
6:51 AM 64.0 °F 54.0 °F 70% 30.07 in 10.0 mi Calm Calm - N/A   Overcast
7:51 AM 64.9 °F 55.0 °F 70% 30.09 in 10.0 mi Calm Calm - N/A   Overcast
9:37 AM 68.0 °F 55.4 °F 64% 30.11 in 10.0 mi Calm Calm - N/A   Scattered Clouds
9:51 AM 69.1 °F 55.0 °F 61% 30.11 in 10.0 mi South 4.6 mph - N/A   Scattered Clouds
10:51 AM 70.0 °F 54.0 °F 57% 30.11 in 10.0 mi Variable 3.5 mph - N/A   Clear
11:51 AM 72.0 °F 55.0 °F 55% 30.11 in 10.0 mi SSW 8.1 mph - N/A   Clear
12:51 PM 72.0 °F 55.0 °F 55% 30.09 in 10.0 mi SW 6.9 mph - N/A   Clear
1:51 PM 71.1 °F 55.0 °F 57% 30.07 in 10.0 mi SW 8.1 mph - N/A   Clear
3:51 PM 70.0 °F 55.9 °F 61% 30.05 in 10.0 mi WSW 9.2 mph - N/A   Clear
4:51 PM 69.1 °F 55.9 °F 63% 30.04 in 10.0 mi WSW 9.2 mph - N/A   Clear
5:51 PM 66.9 °F 57.0 °F 70% 30.04 in 10.0 mi WSW 9.2 mph - N/A   Clear
8:51 PM 64.9 °F 57.9 °F 78% 30.06 in 10.0 mi WSW 4.6 mph - N/A   Partly Cloudy
9:30 PM 66.2 °F 57.2 °F 73% 30.07 in 10.0 mi Calm Calm - N/A   Mostly Cloudy
9:51 PM 64.9 °F 57.9 °F 78% 30.06 in 10.0 mi Calm Calm - N/A   Mostly Cloudy
10:51 PM 64.9 °F 57.9 °F 78% 30.06 in 10.0 mi Calm Calm - N/A   Mostly Cloudy
11:04 PM 64.4 °F 57.2 °F 77% 30.07 in 10.0 mi Calm Calm - N/A   Scattered Clouds
11:12 PM 64.4 °F 57.2 °F 77% 30.06 in 10.0 mi Calm Calm - N/A   Mostly Cloudy
11:51 PM 63.0 °F 57.0 °F 81% 30.06 in 10.0 mi Calm Calm - N/A   Mostly Cloudy